Weather History for Winfield, KS

Change the Weather History Date:

Tuesday, August 21, 2012

  Actual Average Record
Temperature  
Mean Temperature 75 °F -  
Max Temperature 93 °F 90 °F 102 °F (2001)
Min Temperature 59 °F 67 °F 57 °F (2004)
Cooling Degree Days 10    
Growing Degree Days 25 (Base 50)    
Moisture  
Dew Point 47 °F    
Average Humidity 37    
Maximum Humidity 64    
Minimum Humidity 19    
Precipitation  
Precipitation 0.00 in - - ()
Sea Level Pressure  
Sea Level Pressure 30.02 in    
Wind  
Wind Speed 2 mph (SSE)    
Max Wind Speed 12 mph    
Max Gust Speed 23 mph    
Visibility 10 miles    
Events      
Averages and records for this station are not official NWS values.
T = Trace of Precipitation, MM = Missing Value Source: NWS Daily Summary

Daily Weather History Graph

Daily Weather History Graph

Search for Another Location

Airport:

Trip Planner

Search our weather history database for the weather conditions in past years. The results will help you decide how hot, cold, wet, or windy it might be!

Date:

Astronomy

Aug. 21, 2012 Rise Set
Actual Time 6:50 AM CDT 8:11 PM CDT
Civil Twilight 6:22 AM CDT 8:38 PM CDT
Nautical Twilight 5:50 AM CDT 9:11 PM CDT
Astronomical Twilight 5:16 AM CDT 9:45 PM CDT
Moon 11:13 AM CDT (8/21) 10:21 PM CDT (8/21)
Length of Visible Light 14h 15m
Length of Day
13h 21m
Waxing Crescent, 19% of the Moon is Illuminated
Aug 21
Waxing Crescent
Aug 24
First Quarter
Aug 31
Full
Sep 8
Last Quarter
Sep 15
New

Hourly Weather History & Observations

Time (CDT) Temp. Dew Point Humidity Pressure Visibility Wind Dir Wind Speed Gust Speed Precip Events Conditions
12:54 AM 66.9 °F 45.0 °F 45% 30.01 in 10.0 mi Calm Calm - N/A   Clear
1:54 AM 68.0 °F 45.0 °F 43% 30.00 in 10.0 mi Calm Calm - N/A   Clear
2:54 AM 64.9 °F 45.0 °F 48% 30.00 in 10.0 mi Calm Calm - N/A   Clear
3:54 AM 64.0 °F 46.0 °F 52% 30.00 in 10.0 mi Calm Calm - N/A   Clear
4:54 AM 60.1 °F 46.0 °F 60% 30.00 in 10.0 mi Calm Calm - N/A   Clear
5:54 AM 59.0 °F 46.9 °F 64% 30.00 in 10.0 mi Calm Calm - N/A   Clear
6:54 AM 61.0 °F 46.0 °F 58% 30.01 in 10.0 mi Calm Calm - N/A   Clear
7:54 AM 63.0 °F 50.0 °F 63% 30.03 in 9.0 mi Calm Calm - N/A   Clear
8:54 AM 72.0 °F 46.9 °F 41% 30.04 in 10.0 mi Calm Calm - N/A   Clear
9:54 AM 80.1 °F 50.0 °F 35% 30.05 in 10.0 mi North 4.6 mph - N/A   Clear
10:54 AM 84.9 °F 52.0 °F 32% 30.05 in 10.0 mi Variable 4.6 mph - N/A   Clear
11:54 AM 88.0 °F 46.9 °F 24% 30.05 in 10.0 mi Variable 4.6 mph - N/A   Clear
12:54 PM 89.1 °F 44.1 °F 21% 30.05 in 10.0 mi Variable 3.5 mph 18.4 mph N/A   Clear
1:54 PM 91.9 °F 46.0 °F 21% 30.03 in 10.0 mi SSE 11.5 mph 23.0 mph N/A   Clear
2:54 PM 91.0 °F 44.1 °F 20% 30.02 in 10.0 mi ENE 4.6 mph - N/A   Clear
3:54 PM 91.9 °F 44.1 °F 19% 30.00 in 10.0 mi South 10.4 mph - N/A   Clear
4:54 PM 91.0 °F 44.1 °F 20% 29.99 in 10.0 mi SE 8.1 mph - N/A   Clear
5:54 PM 91.0 °F 44.1 °F 20% 29.99 in 10.0 mi Variable 5.8 mph - N/A   Clear
6:54 PM 90.0 °F 45.0 °F 21% 29.99 in 10.0 mi South 6.9 mph - N/A   Clear
7:54 PM 82.9 °F 46.0 °F 27% 30.00 in 10.0 mi South 5.8 mph - N/A   Clear
8:54 PM 79.0 °F 46.9 °F 32% 30.00 in 10.0 mi South 3.5 mph - N/A   Clear
9:54 PM 77.0 °F 48.0 °F 36% 30.01 in 10.0 mi SSE 3.5 mph - N/A   Clear
10:54 PM 73.9 °F 48.9 °F 41% 30.02 in 10.0 mi SSE 3.5 mph - N/A   Clear
11:54 PM 71.1 °F 50.0 °F 47% 30.02 in 10.0 mi SSW 3.5 mph - N/A   Clear